This is the latest recevied weather packets stored in our database for station/object DL9LAF-4. If no packets are shown the sender has not sent any weather packets the latest 10 day(s).
| Time | Temp. | Humidity | Pressure | Rain* | Wind** | Luminosity | Snow |
|---|---|---|---|---|---|---|---|
| 1777127150 | 8.33° C | 74% | 995 hPa | 0 mm | - | - | - |
| 1777126551 | 8.33° C | 50% | 995 hPa | 0 mm | - | - | - |
| 1777125950 | 8.33° C | 74% | 995 hPa | 0 mm | - | - | - |
| 1777125350 | 8.33° C | 72% | 994.9 hPa | 0 mm | - | - | - |
| 1777124750 | 8.89° C | 73% | 994.9 hPa | 0 mm | - | - | - |
| 1777124150 | 8.89° C | 73% | 994.9 hPa | 0 mm | - | - | - |
| 1777123551 | 8.89° C | 73% | 995 hPa | 0 mm | - | - | - |
| 1777122950 | 8.89° C | 72% | 995 hPa | 0 mm | - | - | - |
| 1777122350 | 8.89° C | 73% | 995 hPa | 0 mm | - | - | - |
| 1777121751 | 8.89° C | 75% | 995 hPa | 0 mm | - | - | - |
| 1777121150 | 8.89° C | 74% | 995 hPa | 0 mm | - | - | - |
| 1777120550 | 8.89° C | 74% | 995.2 hPa | 0 mm | - | - | - |
| 1777119950 | 8.89° C | 73% | 995.2 hPa | 0 mm | - | - | - |
| 1777119350 | 9.44° C | 72% | 995.2 hPa | 0 mm | - | - | - |
| 1777118750 | 8.89° C | 73% | 995.2 hPa | 0 mm | - | - | - |
| 1777118150 | 8.89° C | 73% | 995 hPa | 0 mm | - | - | - |
| 1777117550 | 8.89° C | 73% | 995 hPa | 0 mm | - | - | - |
| 1777116951 | 8.89° C | 73% | 995 hPa | 0 mm | - | - | - |
| 1777116351 | 9.44° C | 72% | 995.2 hPa | 0 mm | - | - | - |
| 1777115750 | 8.89° C | 73% | 995.2 hPa | 0 mm | - | - | - |
| 1777115151 | 9.44° C | 74% | 995.2 hPa | 0 mm | - | - | - |
| 1777114551 | 8.89° C | 74% | 995.4 hPa | 0 mm | - | - | - |
| 1777113950 | 8.89° C | 75% | 995.2 hPa | 0 mm | - | - | - |
| 1777113350 | 8.89° C | 74% | 995.2 hPa | 0 mm | - | - | - |
| 1777112750 | 8.89° C | 74% | 995.2 hPa | 0 mm | - | - | - |
* Rain latest hour (hover to see other rain measurements)
** Current wind speed in m/s (hover to see current wind gust speed)